This is the latest recevied weather packets stored in our database for station/object K5KVN. If no packets are shown the sender has not sent any weather packets the latest 1 day(s).
| Time | Temp. | Humidity | Pressure | Rain* | Wind** | Luminosity | Snow |
|---|---|---|---|---|---|---|---|
| 1778095342 | 14.44° C | 69% | 1017.4 hPa | 0 mm | - | - | - |
| 1778094681 | 14.44° C | 71% | 1017.4 hPa | 0 mm | - | - | - |
| 1778092940 | 13.89° C | 73% | 1017.4 hPa | 0 mm | - | - | - |
| 1778091739 | 13.33° C | 71% | 1017.7 hPa | 0 mm | - | - | - |
| 1778085672 | 11.11° C | 79% | 1018.5 hPa | 0 mm | - | - | - |
| 1778083872 | 10.56° C | 77% | 1017.9 hPa | 0 mm | - | - | - |
| 1778078468 | 10° C | 82% | 1017.4 hPa | 0 mm | - | - | - |
| 1778074868 | 8.89° C | 87% | 1017.4 hPa | 0 mm | - | - | - |
| 1778073668 | 8.33° C | 87% | 1017.2 hPa | 0 mm | - | - | - |
| 1778071266 | 8.33° C | 87% | 1016.9 hPa | 0 mm | - | - | - |
| 1778070665 | 8.33° C | 87% | 1017.1 hPa | 0 mm | - | - | - |
| 1778069464 | 8.33° C | 87% | 1016.4 hPa | 0 mm | - | - | - |
| 1778068862 | 8.33° C | 86% | 1016.4 hPa | 0 mm | - | - | - |
| 1778064056 | 8.33° C | 87% | 1015 hPa | 0 mm | - | - | - |
| 1778059848 | 8.33° C | 86% | 1013.2 hPa | 0 mm | - | - | - |
| 1778056848 | 8.33° C | 88% | 1013.5 hPa | 0 mm | - | - | - |
| 1778056309 | 8.33° C | 89% | 1013.3 hPa | 0 mm | - | - | - |
| 1778055648 | 8.33° C | 90% | 1013.1 hPa | 0 mm | - | - | - |
| 1778054448 | 8.33° C | 91% | 1013.1 hPa | 0 mm | - | - | - |
| 1778053245 | 8.33° C | 93% | 1012.8 hPa | 0 mm | - | - | - |
| 1778052643 | 8.33° C | 93% | 1012.7 hPa | 0 mm | - | - | - |
| 1778051442 | 8.33° C | 92% | 1012.9 hPa | 0 mm | - | - | - |
| 1778050838 | 8.33° C | 92% | 1012.8 hPa | 0 mm | - | - | - |
| 1778049636 | 8.33° C | 91% | 1013.2 hPa | 0 mm | - | - | - |
| 1778049037 | 8.33° C | 92% | 1013.8 hPa | 0 mm | - | - | - |
* Rain latest hour (hover to see other rain measurements)
** Current wind speed in m/s (hover to see current wind gust speed)